User: anonymous   Login
Location: Newark
(43.0000°N, 1.6781°W)
Time: 12:39:07
(UTC+00:00)
Language:

PSAT 2 - Orbit

View from above orbital plane
View from above orbital plane
View from above satellite
View from above satellite

Ground track
Ground track

The orbit data is extracted from the following two-line orbital elements,

1 44354U 19036R   22342.17770922  .00145746 -80534-6  69773-3 0  9996
2 44354  28.5209  33.4215 0141809 162.6908 197.8597 15.67835844191672
Epoch (UTC): 08 December 2022 04:15:54
Eccentricity: 0.0141809
inclination: 28.5209°
perigee height: 269 km
apogee height: 461 km
right ascension of ascending node: 33.4215°
argument of perigee: 162.6908°
revolutions per day: 15.67835844
mean anomaly at epoch: 197.8597°
orbit number at epoch: 19167

The dashed part of the orbit path shows where the satellite is in the earth's shadow,  

DLR